ELECTRON KICK STAGE R/B

Last updated on Mon Oct 20 2025 00:02:08 GMT+0000 (Coordinated Universal Time)

1 65973U 25229C 25292.03417276 .00011175 00000+0 82799-3 0 9992 2 65973 41.9834 181.9864 0042059 275.0878 84.5148 15.02356317 659

Satellite not in orbit